Location: Buch
(49.7331°N, 12.1098°E)
Time: 00:48:28
(UTC+00:00)

Meteor 2-4 Rocket - Pass Details

Date: 12 May 2021
Orbit: 799 x 909 km, 81.2° (Epoch: 18 June)

Event Time Altitude Azimuth Distance (km) Brightness Sun altitude
Exits shadow 22:36:00 44° 184° (S) 1,184 4.0 -21.5°
Maximum altitude 22:37:56 85° 100° (E) 872 3.7 -21.6°
Drops below altitude 10° 22:43:33 10° 13° (NNE) 2,473 7.1 -21.7°
Sets 22:45:56 0° 13° (NNE) 3,396 8.1 -21.7°
